• In Russia
  • List of Countries
  • For 7 days
  • Water Temperature
  • Satellite Maps
  • Weather Map
  • Weather Widgets
  • user-avatar
    Login

    Hourly Weather Lezhe

    Today, 23 February, Thursday

    Time Temperature Precipitation Wind Pressure Humidity
    00:00 +6°C° 0 mm 1 mps 739 mmHg 95%
    01:00 +6°C° 0 mm 1 mps 739 mmHg 95%
    02:00 +5°C° 0 mm 2 mps 739 mmHg 95%
    03:00 +5°C° 0 mm 2 mps 739 mmHg 94%
    04:00 +4°C° 0 mm 2 mps 739 mmHg 94%
    05:00 +5°C° 0 mm 2 mps 739 mmHg 92%
    06:00 +5°C° 0 mm 2 mps 739 mmHg 91%
    07:00 +5°C° 0 mm 2 mps 739 mmHg 90%
    08:00 +7°C° 0 mm 2 mps 739 mmHg 85%
    09:00 +9°C° 0 mm 2 mps 739 mmHg 79%
    10:00 +12°C° 0 mm 2 mps 739 mmHg 74%
    11:00 +13°C° 0 mm 2 mps 739 mmHg 73%
    12:00 +13°C° 0 mm 2 mps 739 mmHg 72%
    13:00 +14°C° 0 mm 2 mps 738 mmHg 71%
    14:00 +13°C° 0 mm 2 mps 738 mmHg 74%
    15:00 +13°C° 0 mm 2 mps 738 mmHg 77%
    16:00 +12°C° 0 mm 2 mps 738 mmHg 79%
    17:00 +10°C° 0 mm 2 mps 738 mmHg 84%
    18:00 +8°C° 0 mm 2 mps 738 mmHg 88%
    19:00 +7°C° 0 mm 2 mps 738 mmHg 92%
    20:00 +7°C° 0 mm 2 mps 738 mmHg 92%
    21:00 +6°C° 0 mm 2 mps 738 mmHg 92%
    22:00 +6°C° 0 mm 2 mps 738 mmHg 92%
    23:00 +6°C° 0 mm 2 mps 738 mmHg 92%

    Tomorrow, 24 February, Friday

    Time Temperature Precipitation Wind Pressure Humidity
    00:00 +6°C° 0 mm 2 mps 738 mmHg 92%
    01:00 +5°C° 0 mm 3 mps 738 mmHg 92%
    02:00 +5°C° 0 mm 3 mps 738 mmHg 93%
    03:00 +5°C° 0 mm 3 mps 737 mmHg 93%
    04:00 +5°C° 0 mm 3 mps 737 mmHg 93%
    05:00 +7°C° 0 mm 3 mps 737 mmHg 92%
    06:00 +7°C° 0 mm 3 mps 737 mmHg 91%
    07:00 +7°C° 0 mm 3 mps 737 mmHg 91%
    08:00 +8°C° 0.1 mm 3 mps 737 mmHg 88%
    09:00 +10°C° 0.1 mm 3 mps 737 mmHg 85%
    10:00 +11°C° 0.1 mm 3 mps 736 mmHg 82%
    11:00 +11°C° 0 mm 3 mps 736 mmHg 81%
    12:00 +12°C° 0 mm 3 mps 736 mmHg 81%
    13:00 +12°C° 0 mm 4 mps 735 mmHg 80%
    14:00 +12°C° 0 mm 3 mps 735 mmHg 82%
    15:00 +12°C° 0 mm 3 mps 735 mmHg 84%
    16:00 +12°C° 0 mm 3 mps 734 mmHg 85%
    17:00 +11°C° 0.1 mm 4 mps 734 mmHg 89%
    18:00 +10°C° 0.1 mm 4 mps 734 mmHg 92%
    19:00 +9°C° 0.1 mm 5 mps 734 mmHg 95%
    20:00 +9°C° 0.7 mm 5 mps 734 mmHg 94%
    21:00 +9°C° 0.7 mm 5 mps 733 mmHg 94%
    22:00 +9°C° 0.7 mm 5 mps 733 mmHg 93%
    23:00 +9°C° 1.1 mm 5 mps 733 mmHg 93%

    Day after tomorrow, 25 February, Saturday

    Time Temperature Precipitation Wind Pressure Humidity
    00:00 +9°C° 1.1 mm 5 mps 733 mmHg 93%
    01:00 +9°C° 1.1 mm 5 mps 733 mmHg 93%
    02:00 +9°C° 2.2 mm 5 mps 733 mmHg 93%
    03:00 +9°C° 2.2 mm 5 mps 732 mmHg 93%
    04:00 +9°C° 2.2 mm 5 mps 732 mmHg 94%
    05:00 +9°C° 2.7 mm 5 mps 732 mmHg 94%
    06:00 +8°C° 2.7 mm 4 mps 733 mmHg 95%
    07:00 +8°C° 2.7 mm 4 mps 733 mmHg 95%
    08:00 +8°C° 2.9 mm 4 mps 733 mmHg 94%
    09:00 +8°C° 2.9 mm 4 mps 734 mmHg 93%
    10:00 +7°C° 2.9 mm 4 mps 734 mmHg 93%
    11:00 +7°C° 2.1 mm 4 mps 734 mmHg 92%
    12:00 +7°C° 2.1 mm 4 mps 734 mmHg 92%
    13:00 +7°C° 2.1 mm 4 mps 734 mmHg 91%
    14:00 +6°C° 1.6 mm 5 mps 735 mmHg 91%
    15:00 +6°C° 1.6 mm 5 mps 735 mmHg 91%
    16:00 +5°C° 1.6 mm 6 mps 735 mmHg 91%
    17:00 +4°C° 1.1 mm 6 mps 736 mmHg 91%
    18:00 +4°C° 1.1 mm 6 mps 737 mmHg 91%
    19:00 +4°C° 1.1 mm 6 mps 738 mmHg 91%
    20:00 +3°C° 0.7 mm 6 mps 738 mmHg 91%
    21:00 +3°C° 0.7 mm 6 mps 738 mmHg 91%
    22:00 +3°C° 0.7 mm 5 mps 739 mmHg 90%
    23:00 +3°C° 0.3 mm 5 mps 739 mmHg 90%

    26 February, Sunday

    Time Temperature Precipitation Wind Pressure Humidity
    00:00 +3°C° 0.3 mm 5 mps 739 mmHg 90%
    01:00 +3°C° 0.3 mm 5 mps 739 mmHg 90%
    02:00 +2°C° 0 mm 5 mps 739 mmHg 90%
    03:00 +3°C° 0 mm 4 mps 739 mmHg 90%
    04:00 +3°C° 0 mm 4 mps 739 mmHg 90%
    05:00 +3°C° 0 mm 4 mps 739 mmHg 89%
    06:00 +3°C° 0 mm 4 mps 739 mmHg 89%
    07:00 +3°C° 0 mm 3 mps 740 mmHg 89%
    08:00 +5°C° 0 mm 3 mps 740 mmHg 87%
    09:00 +7°C° 0 mm 3 mps 740 mmHg 86%
    10:00 +9°C° 0 mm 3 mps 740 mmHg 85%
    11:00 +10°C° 0 mm 3 mps 739 mmHg 83%
    12:00 +12°C° 0 mm 2 mps 739 mmHg 82%
    13:00 +13°C° 0 mm 2 mps 739 mmHg 81%
    14:00 +13°C° 0 mm 2 mps 738 mmHg 82%
    15:00 +13°C° 0 mm 2 mps 738 mmHg 84%
    16:00 +13°C° 0 mm 2 mps 738 mmHg 86%
    17:00 +10°C° 0 mm 2 mps 738 mmHg 88%
    18:00 +9°C° 0 mm 2 mps 738 mmHg 90%
    19:00 +8°C° 0 mm 3 mps 738 mmHg 92%
    20:00 +7°C° 0 mm 2 mps 738 mmHg 91%
    21:00 +7°C° 0 mm 2 mps 739 mmHg 90%
    22:00 +6°C° 0 mm 2 mps 739 mmHg 89%
    23:00 +6°C° 0 mm 2 mps 738 mmHg 89%

    27 February, Monday

    Time Temperature Precipitation Wind Pressure Humidity
    00:00 +6°C° 0 mm 2 mps 738 mmHg 88%
    01:00 +5°C° 0 mm 2 mps 738 mmHg 88%
    02:00 +5°C° 0 mm 2 mps 738 mmHg 87%
    03:00 +5°C° 0 mm 2 mps 738 mmHg 87%
    04:00 +5°C° 0 mm 2 mps 737 mmHg 87%
    05:00 +6°C° 0 mm 1 mps 738 mmHg 86%
    06:00 +7°C° 0 mm 1 mps 738 mmHg 85%
    07:00 +7°C° 0 mm 1 mps 738 mmHg 85%
    08:00 +9°C° 0 mm 1 mps 738 mmHg 81%
    09:00 +11°C° 0 mm 1 mps 738 mmHg 77%
    10:00 +13°C° 0 mm 0 mps 738 mmHg 73%
    11:00 +14°C° 0 mm 1 mps 738 mmHg 71%
    12:00 +15°C° 0 mm 1 mps 737 mmHg 69%
    13:00 +16°C° 0 mm 1 mps 737 mmHg 67%
    14:00 +15°C° 0 mm 1 mps 737 mmHg 71%
    15:00 +15°C° 0 mm 1 mps 737 mmHg 74%
    16:00 +15°C° 0 mm 1 mps 737 mmHg 78%
    17:00 +13°C° 0 mm 1 mps 737 mmHg 83%
    18:00 +11°C° 0 mm 1 mps 737 mmHg 87%
    19:00 +9°C° 0 mm 1 mps 737 mmHg 92%
    20:00 +8°C° 0 mm 1 mps 737 mmHg 92%
    21:00 +8°C° 0 mm 1 mps 737 mmHg 92%
    22:00 +8°C° 0 mm 1 mps 737 mmHg 92%
    23:00 +8°C° 0 mm 1 mps 737 mmHg 92%

    28 February, Tuesday

    Time Temperature Precipitation Wind Pressure Humidity
    00:00 +8°C° 0 mm 1 mps 737 mmHg 92%
    01:00 +8°C° 0 mm 1 mps 737 mmHg 92%
    02:00 +7°C° 0 mm 1 mps 737 mmHg 91%
    03:00 +7°C° 0 mm 1 mps 736 mmHg 91%
    04:00 +7°C° 0 mm 1 mps 736 mmHg 91%
    05:00 +7°C° 0 mm 1 mps 736 mmHg 91%
    06:00 +7°C° 0 mm 1 mps 736 mmHg 90%
    07:00 +8°C° 0 mm 1 mps 737 mmHg 89%
    08:00 +9°C° 0 mm 2 mps 737 mmHg 84%
    09:00 +12°C° 0 mm 2 mps 737 mmHg 78%
    10:00 +14°C° 0 mm 2 mps 737 mmHg 73%
    11:00 +14°C° 0 mm 2 mps 736 mmHg 72%
    12:00 +15°C° 0 mm 2 mps 736 mmHg 70%
    13:00 +14°C° 0 mm 3 mps 736 mmHg 69%
    14:00 +14°C° 0 mm 3 mps 736 mmHg 72%
    15:00 +14°C° 0 mm 3 mps 735 mmHg 74%
    16:00 +13°C° 0 mm 3 mps 735 mmHg 77%
    17:00 +12°C° 0 mm 3 mps 735 mmHg 83%
    18:00 +10°C° 0 mm 3 mps 736 mmHg 89%
    19:00 +9°C° 0 mm 3 mps 736 mmHg 94%
    20:00 +9°C° 0.2 mm 3 mps 736 mmHg 95%
    21:00 +9°C° 0.2 mm 3 mps 736 mmHg 96%
    22:00 +8°C° 0.2 mm 4 mps 736 mmHg 96%
    23:00 +8°C° 0.3 mm 4 mps 736 mmHg 96%
    Show more